Buffalo, SD

10:33 AM MDT on April 26, 2017 (GMT -0600)
Buffalo

Weather History for K2WX - April, 2013

Change the Weather History Date:

Thursday, April 18, 2013

  Actual Average Record
Temperature  
Mean Temperature 28 °F 44 °F  
Max Temperature 40 °F 56 °F 73 °F (2005)
Min Temperature 15 °F 32 °F 15 °F (2013)
Degree Days  
Heating Degree Days 37 21  
Month to date heating degree days 561 429  
Since 1 July heating degree days 6957 7232  
Cooling Degree Days 0 0  
Month to date cooling degree days 0 0  
Year to date cooling degree days 0 0  
Moisture  
Dew Point 17 °F    
Average Humidity 64    
Maximum Humidity 91    
Minimum Humidity 37    
Precipitation  
Precipitation 0.00 in 0.05 in 0.89 in (2016)
Month to date precipitation 0.90 0.79  
Year to date precipitation 1.38 2.13  
Sea Level Pressure  
Sea Level Pressure 30.13 in    
Wind  
Wind Speed 13 mph (NW)    
Max Wind Speed 29 mph    
Max Gust Speed 33 mph    
T = Trace of Precipitation, MM = Missing Value Source: NWS Daily Summary

Daily Weather History Graph

Daily Weather History Graph

Search for Another Location

Airport or City:

Trip Planner

Search our weather history database for the weather conditions in past years. The results will help you decide how hot, cold, wet, or windy it might be!

Date:

Astronomy

Apr. 18, 2013 Rise Set
Actual Time 6:02 AM MDT 7:44 PM MDT
Civil Twilight 5:31 AM MDT 8:16 PM MDT
Nautical Twilight 4:53 AM MDT 8:54 PM MDT
Astronomical Twilight 4:12 AM MDT 9:36 PM MDT
Moon 12:13 PM MDT (4/18) 2:04 AM MDT (4/18)
Length of Visible Light 14h 44m
Length of Day
13h 42m
First Quarter, 52% of the Moon is Illuminated
Apr 18
First Quarter
Apr 25
Full
May 2
Last Quarter
May 9
New
May 17
First Quarter

Hourly Weather History & Observations

Time (MDT) Temp. Windchill Dew Point Humidity Pressure Visibility Wind Dir Wind Speed Gust Speed Precip Events Conditions
12:56 AM 19.9 °F 8.6 °F 17.1 °F 89% 30.22 in - NNW 10.4 mph - N/A   Unknown
1:56 AM 21.9 °F 11.0 °F 18.0 °F 85% 30.20 in - NNW 10.4 mph - N/A   Unknown
2:56 AM 21.0 °F 16.2 °F 18.0 °F 88% 30.19 in - West 3.5 mph - N/A   Unknown
3:56 AM 21.9 °F 10.4 °F 18.0 °F 85% 30.20 in - NW 11.5 mph - N/A   Unknown
4:56 AM 19.0 °F 10.0 °F 15.1 °F 85% 30.20 in - WNW 6.9 mph - N/A   Unknown
5:56 AM 17.1 °F 5.8 °F 12.9 °F 84% 30.20 in - NW 9.2 mph - N/A   Unknown
6:56 AM 16.0 °F 7.4 °F 12.9 °F 88% 30.20 in - West 5.8 mph - N/A   Unknown
7:56 AM 21.9 °F 8.2 °F 18.0 °F 85% 30.19 in - NW 16.1 mph - N/A   Unknown
8:56 AM 25.0 °F 10.6 °F 19.0 °F 78% 30.17 in - NW 20.7 mph - N/A   Unknown
9:56 AM 27.0 °F 11.9 °F 19.0 °F 72% 30.16 in - NW 25.3 mph - N/A   Unknown
10:56 AM 28.9 °F 15.1 °F 19.0 °F 67% 30.16 in - NNW 23.0 mph 33.4 mph N/A   Unknown
11:56 AM 30.9 °F 17.5 °F 18.0 °F 59% 30.15 in - NW 24.2 mph - N/A   Unknown
12:56 PM 34.0 °F 22.4 °F 19.0 °F 54% 30.13 in - NW 20.7 mph 29.9 mph N/A   Unknown
1:56 PM 35.1 °F 23.0 °F 17.1 °F 48% 30.12 in - NNW 24.2 mph 31.1 mph N/A   Unknown
2:56 PM 37.0 °F 25.4 °F 17.1 °F 44% 30.11 in - NW 25.3 mph 31.1 mph N/A   Unknown
3:56 PM 37.9 °F 28.5 °F 18.0 °F 45% 30.09 in - NNW 17.3 mph 27.6 mph N/A   Unknown
4:56 PM 39.0 °F 29.6 °F 16.0 °F 39% 30.10 in - NW 18.4 mph 24.2 mph N/A   Unknown
5:56 PM 37.9 °F 29.6 °F 16.0 °F 41% 30.09 in - NNW 13.8 mph - N/A   Unknown
6:56 PM 37.0 °F 28.9 °F 16.0 °F 42% 30.09 in - NW 12.7 mph - N/A   Unknown
7:56 PM 33.1 °F 26.9 °F 18.0 °F 54% 30.08 in - NNW 6.9 mph - N/A   Unknown
8:56 PM 33.1 °F - 18.0 °F 54% 30.06 in - Calm Calm - N/A   Unknown
9:56 PM 30.9 °F 27.5 °F 18.0 °F 59% 30.03 in - South 3.5 mph - N/A   Unknown
10:56 PM 30.0 °F 25.2 °F 19.9 °F 66% 30.01 in - WSW 4.6 mph - N/A   Unknown
11:56 PM 30.0 °F - 21.0 °F 69% 29.99 in - Calm Calm - N/A   Unknown